Location: Montreal
(45.5000°N, 73.5833°W)
Time: 01:24:07
(UTC-05:00)

Vanguard 1 - Visible Passes

Search period start: 17 December 2017 00:00
Search period end: 27 December 2017 00:00
Orbit: 650 x 3834 km, 34.2° (Epoch: 15 December)

Date Brightness Start Highest point End Pass type
(mag) Time Alt. Az. Time Alt. Az. Time Alt. Az.
17 Dec 14.5 04:45:33 10° SSE 04:58:27 18° SE 05:10:39 10° E visible
18 Dec 14.4 05:03:08 10° S 05:19:04 24° SE 05:33:53 10° E visible
19 Dec 14.3 05:21:47 10° SSW 05:39:46 30° SE 05:56:12 10° E visible
20 Dec 14.5 03:30:12 10° SSE 03:38:11 13° SE 03:46:18 10° ESE visible
20 Dec 14.1 05:41:09 10° SSW 06:00:33 37° SE 06:18:02 10° E visible
21 Dec 14.3 03:45:46 10° SSE 03:58:32 19° SE 04:11:38 10° E visible
21 Dec 13.9 06:00:58 10° SSW 06:21:27 43° SSE 06:39:35 10° E visible
22 Dec 14.1 04:03:33 10° S 04:18:57 25° SE 04:34:53 10° E visible
22 Dec 13.8 06:21:10 10° SW 06:42:25 48° SSE 07:00:57 10° E visible
23 Dec 14.0 04:22:20 10° SSW 04:39:29 31° SE 04:57:16 10° E visible
23 Dec 13.7 06:41:40 10° SW 07:03:31 53° SSE 07:22:12 10° E visible
24 Dec 14.2 02:31:26 10° SE 02:38:29 13° ESE 02:45:59 10° ESE visible
24 Dec 13.9 04:41:45 10° SSW 05:00:07 37° SE 05:19:11 10° E visible
25 Dec 14.0 02:47:02 10° SSE 02:58:38 18° SE 03:11:34 10° E visible
25 Dec 13.7 05:01:36 10° SSW 05:20:54 43° SSE 05:40:49 10° E visible
26 Dec 13.9 03:04:55 10° S 03:18:53 24° SE 03:34:56 10° E visible
26 Dec 13.6 05:21:47 10° SW 05:41:49 49° SSE 06:02:16 10° E visible
